Back to Previous

Regional Weather Roundup

736 
ASUS44 KLZK 241705
RWRLZK

WEATHER ROUNDUP FOR ARKANSAS
NATIONAL WEATHER SERVICE LITTLE ROCK AR
1200 PM CDT WED AUG 24 2016

NOTE: "FAIR" INDICATES FEW OR NO CLOUDS BELOW 12,000 FEET WITH NO
SIGNIFICANT WEATHER AND/OR OBSTRUCTIONS TO VISIBILITY.

ARZ001-003-010-029-241800-
NORTHWEST ARKANSAS
  
CITY           SKY/WX    TMP DP  RH WIND       PRES   REMARKS
FAYETTEVILLE   SUNNY     87  72  60 SW15      30.13F HX  93           
FORT SMITH     SUNNY     90  68  48 SW8       30.10F HX  94           
HARRISON       SUNNY     87  72  60 SW9       30.14S HX  93           
BENTONVILLE    SUNNY     88  70  55 SW14G20   30.13F HX  92           
ROGERS         MOSUNNY   88  71  57 SW15      30.13F HX  94           
SILOAM SPGS    SUNNY     90  66  45 SW12      30.12F HX  92           
HIGHFILL       SUNNY     89  72  56 SW14      30.12S HX  96           
SPRINGDALE     MOSUNNY   86  72  62 SW17      30.15S HX  92           
$$

ARZ004-005-016-241800-
NORTH CENTRAL ARKANSAS
  
CITY           SKY/WX    TMP DP  RH WIND       PRES   REMARKS
BATESVILLE     PTSUNNY   90  75  62 SW9       30.13S HX 100           
FLIPPIN        SUNNY     90  70  51 SW7G18    30.10S HX  95           
MTN HOME       SUNNY     86  74  67 W7        30.12S HX  94           
$$

ARZ040-041-241800-
WEST CENTRAL ARKANSAS
  
CITY           SKY/WX    TMP DP  RH WIND       PRES   REMARKS
MENA           SUNNY     88  70  55 W9        30.16F HX  92           
MOUNT IDA      SUNNY     89  68  49 VRB6      30.13F HX  93           
$$

ARZ009-017-025-026-028-241800-
NORTHEAST ARKANSAS
  
CITY           SKY/WX    TMP DP  RH WIND       PRES   REMARKS
CORNING          N/A     90  81  74 S12       30.12F HX 108           
JONESBORO      SUNNY     88  77  69 SW10G25   30.14S HX 100           
NEWPORT        SUNNY     89  77  67 SW12      30.14S HX 101           
WALNUT RIDGE   SUNNY     90  75  62 S15       30.11F HX 100           
BLYTHEVILLE    MOSUNNY   90  77  65 SW9       30.15F HX 103           
NW BLYTHEVILLE PTSUNNY   90  75  62 SW12G22   30.14F HX 100           
$$

ARZ022-023-033-042-044-241800-
CENTRAL ARKANSAS
  
CITY           SKY/WX    TMP DP  RH WIND       PRES   REMARKS
LITTLE ROCK    MOSUNNY   91  75  59 S8        30.14F HX 101           
SEARCY         SUNNY     91  78  65 S8        30.15S HX 106           
HOT SPRINGS    MOSUNNY   89  72  56 SW7       30.15F HX  96           
RUSSELLVILLE   SUNNY     88  73  61 W10       30.13S HX  95           
$$

ARZ036-241800-
EAST ARKANSAS
  
CITY           SKY/WX    TMP DP  RH WIND       PRES   REMARKS
WEST MEMPHIS   MOSUNNY   88  77  69 S5        30.16S HX 100           
$$

ARZ050-053-066-070-073-241800-
SOUTHWEST ARKANSAS
  
CITY           SKY/WX    TMP DP  RH WIND       PRES   REMARKS
ARKADELPHIA    PTSUNNY   88  77  69 SW8       30.15S HX 100           
CAMDEN         MOSUNNY   91  73  55 W3        30.16S HX 100           
TEXARKANA      SUNNY     88  72  58 MISG      30.15S HX  94           
EL DORADO      SUNNY     89  74  60 VRB5      30.16S HX  98           
DE QUEEN       SUNNY     87  73  62 VRB3      30.12F HX  94           
$$

ARZ056-057-069-241800-
SOUTHEAST ARKANSAS
  
CITY           SKY/WX    TMP DP  RH WIND       PRES   REMARKS
PINE BLUFF     MOSUNNY   89  75  63 SW8       30.16S HX  99           
STUTTGART      MOSUNNY   91  73  55 S9        30.16S HX 100           
MONTICELLO     MOSUNNY   93  74  53 SW8       30.17R HX 103           

$$


  


USA.gov is the U.S. government's official web portal to all federal, state and local government web resources and services.